Presure
186 188 192 254 255 229 225 220 215 206 193 205 193 190 198 207 219 223 240 222 215 221 210 208 207 211 209 207 213 228 245 242 239 239 240 246 251 249
193 190 258 240 218 211 205 203 194 197 200 201 203 207 231 216 204 205 235 248 237 218 216 209 207 208 209 207 215 212 232 225 247 245 254 261 243 240
174 237 219 206 198 201 197 200 196 206 181 205 201 180 214 198 213 207 221 208 218 235 237 220 212 201 200 210 210 215 213 213 230 225 247 251 260 261
216 216 207 213 190 204 208 171 214 176 213 205 220 225 226 223 202 238 191 243 224 227 229 248 232 216 205 201 205 210 209 213 209 226 225 227 253 254
210 207 203 208 215 186 199 160 222 165 215 216 190 208 201 215 232 205 210 239 234 217 215 230 239 241 229 212 202 198 207 209 206 212 217 236 226 241
210 207 203 205 192 191 215 210 201 201 212 215 208 196 188 237 199 229 240 241 247 241 243 211 225 237 239 237 224 209 200 188 204 208 216 218 235 225
206 198 169 191 180 133 127 150 165 216 177 211 185 188 187 172 220 212 229 248 238 205 239 240 244 218 233 236 249 233 221 208 201 204 207 217 215 229
173 201 203 125 119 195 184 197 226 173 191 217 204 221 192 211 249 239 240 250 235 245 248 231 230 237 236 216 255 248 241 231 218 211 212 207 215 216
207 207 208 157 195 155 174 191 164 223 208 223 205 206 232 232 252 244 208 263 228 248 248 244 238 238 248 206 233 243 243 253 222 224 211 208 209 212
175 145 177 178 191 160 146 180 167 215 184 233 147 235 224 237 224 215 203 273 263 256 251 252 247 251 252 243 245 242 241 255 257 239 221 204 210 215
160 186 184 147 215 203 193 178 153 131 237 141 251 196 241 219 235 241 251 180 258 162 256 251 254 262 200 258 256 247 244 245 243 258 245 226 218 213
180 174 152 236 188 226 243 232 231 239 161 158 234 225 220 220 226 256 254 261 267 265 256 263 249 243 260 269 257 256 253 252 250 238 257 249 228 224
166 222 219 217 188 212 175 202 242 240 181 239 152 236 241 253 257 257 264 263 251 265 258 255 256 252 251 260 258 267 269 252 263 259 241 255 255 242
183 193 219 221 227 237 232 243 237 241 233 239 237 244 252 250 263 269 268 261 265 260 258 265 259 257 259 250 246 249 252 275 271 262 263 252 255 252
200 239 232 236 229 240 257 238 236 235 239 243 245 253 251 262 275 267 267 269 264 266 275 267 265 264 262 268 259 254 249 253 266 271 266 267 249 261
233 240 240 235 245 152 191 246 249 238 242 240 251 258 263 275 269 268 274 266 268 261 267 270 274 277 278 278 274 272 261 262 254 258 275 273 280 256
249 239 238 250 251 254 257 250 246 250 248 248 253 277 281 282 268 291 287 294 288 281 280 287 293 300 292 292 304 299 286 281 276 268 266 283 281 276
237 239 247 243 253 251 253 250 244 245 254 267 273 291 298 302 273 304 296 314 331 350 355 359 358 359 350 353 349 344 347 329 317 287 281 277 278 275
250 240 235 254 252 253 254 254 264 264 282 289 283 306 313 314 314 320 363 375 389 410 442 439 441 441 441 400 375 369 356 343 338 339 324 336 285 294
264 254 254 258 263 263 260 279 299 301 307 315 316 322 332 348 381 420 443 454 518 510 505 500 499 502 519 482 457 428 423 397 360 344 336 334 322 304
264 259 262 268 270 279 305 307 314 317 326 340 348 354 388 427 437 513 480 457 448 445 451 450 449 461 477 499 526 452 419 415 410 384 356 344 338 338
264 263 280 295 305 300 320 315 328 341 341 352 400 418 474 512 468 425 415 415 409 409 410 414 416 426 457 469 501 506 433 406 396 392 392 382 350 341
303 307 281 305 320 332 325 343 345 356 367 400 512 505 476 413 401 400 385 380 400 425 435 443 446 460 467 472 481 492 424 416 381 382 382 374 366 353
Wind_Speed
79 78 80 61 54 53 51 51 50 53 49 45 54 58 52 47 41 40 37 40 41 35 36 37 33 30 28 26 24 23 20 22 22 24 25 26 29 31
83 82 57 57 57 57 58 57 60 61 59 50 48 49 43 47 52 50 41 41 40 43 42 39 38 36 33 32 28 25 24 23 22 23 24 29 30 29
78 61 61 64 68 66 66 61 61 61 59 62 57 52 44 49 53 51 47 50 45 42 42 46 44 42 39 36 35 30 27 26 26 24 24 23 25 30
73 69 71 68 74 70 69 57 62 57 63 67 63 60 57 55 48 56 58 51 49 47 44 47 46 49 47 42 39 38 34 30 29 28 25 24 26 26
78 77 78 74 74 75 74 52 71 60 68 67 64 62 58 60 63 56 59 60 54 52 51 49 49 51 51 52 48 43 42 39 35 32 30 29 27 27
80 78 81 81 71 76 79 79 79 76 76 74 72 66 60 68 58 66 65 65 66 61 59 58 54 53 53 55 55 54 48 41 42 39 35 33 31 30
82 88 70 85 79 61 61 70 41 85 54 75 72 71 68 67 73 75 74 70 68 57 66 64 62 57 56 57 60 60 59 55 50 46 42 38 36 34
81 91 91 60 52 89 66 83 92 58 77 92 82 91 76 84 78 78 74 75 74 73 73 69 62 65 61 59 60 62 64 63 59 56 51 46 42 39
93 92 93 75 88 60 65 90 77 95 88 89 94 91 92 95 86 84 77 79 76 80 77 81 67 68 72 62 65 64 66 66 65 62 59 55 50 46
73 70 63 72 93 74 72 91 79 103 88 99 64 100 94 98 93 83 75 83 82 84 82 81 82 79 77 71 70 67 68 67 67 69 67 62 59 54
68 98 84 74 108 104 104 74 65 55 103 62 93 85 97 96 99 100 102 73 85 71 88 83 82 80 75 77 74 73 68 70 71 70 73 71 68 64
88 76 72 107 94 113 103 109 96 103 82 80 106 108 109 107 104 106 97 93 84 84 87 82 84 84 73 75 78 72 72 71 74 74 74 74 75 73
71 114 118 118 95 109 88 102 107 108 90 107 76 106 108 111 113 108 102 94 92 86 86 88 86 86 84 72 73 73 71 73 72 75 77 78 76 79
92 108 111 120 118 114 116 108 110 107 111 110 111 113 115 114 112 108 105 98 97 91 92 91 88 90 87 88 83 84 78 73 72 75 78 80 80 80
122 117 116 118 123 117 114 115 116 115 112 112 115 123 121 121 118 111 106 106 103 101 101 96 95 95 94 90 89 90 90 87 79 79 79 81 86 83
123 117 116 121 118 85 102 117 115 117 116 116 124 129 126 124 115 111 108 109 108 107 109 107 106 103 102 100 99 96 96 95 94 86 87 84 83 90
115 117 119 118 118 119 118 116 119 121 121 122 129 131 128 119 117 119 113 110 113 113 113 117 119 118 115 112 111 109 105 102 102 101 91 92 88 87
118 119 118 120 120 120 120 122 121 121 133 141 134 129 123 118 113 110 113 116 112 106 105 106 106 107 104 104 103 98 100 103 109 109 108 100 94 91
121 121 123 124 123 124 128 130 138 138 145 135 128 121 119 119 120 109 111 109 107 105 96 95 95 98 99 105 105 106 102 101 102 105 102 102 104 106
123 122 124 128 131 132 133 145 136 128 124 123 120 118 116 114 109 100 90 82 60 58 56 54 56 57 54 70 74 80 84 94 99 101 99 100 102 106
129 127 131 137 139 141 133 127 126 123 119 113 112 113 107 93 84 59 61 61 61 59 55 54 55 55 53 51 46 60 68 73 76 85 94 99 99 97
135 131 143 140 126 128 122 119 117 112 106 112 103 93 72 56 60 60 59 56 55 53 51 50 51 50 49 48 42 42 55 62 66 69 72 77 88 91
137 131 118 128 122 117 116 114 113 114 109 94 60 56 57 59 58 55 53 54 52 48 45 43 43 41 40 40 40 37 47 51 60 62 64 67 72 78
Wind_Direction
301 302 305 307 307 307 308 305 305 305 308 299 308 311 309 308 307 307 300 298 299 297 296 298 299 300 298 296 303 312 305 298 293 287 280 271 262 259
301 302 305 307 307 305 305 305 308 307 304 302 298 301 307 303 302 301 303 295 290 293 291 289 290 291 291 292 294 291 306 300 295 287 283 271 270 266
299 304 304 302 303 304 303 303 303 302 305 300 301 301 298 292 304 299 300 296 294 291 284 284 284 284 285 285 286 285 283 284 296 293 291 279 273 268
300 300 301 299 303 299 299 302 304 299 301 300 306 308 308 305 293 303 292 298 289 287 285 282 277 279 280 279 278 279 276 275 274 285 280 282 283 273
296 296 298 300 301 302 302 292 305 289 303 303 302 302 302 305 302 296 298 296 290 284 284 282 279 273 271 274 274 273 272 271 269 269 275 278 273 281
298 298 297 300 303 301 302 302 301 301 303 303 302 301 300 301 300 299 296 294 292 290 288 281 278 276 273 268 267 268 269 267 266 267 265 267 272 266
299 296 302 296 296 287 292 292 293 302 295 298 303 301 298 285 297 298 298 292 289 283 288 285 283 274 272 270 267 262 262 265 264 263 261 260 259 266
302 297 297 287 289 301 299 300 301 302 295 302 299 300 298 300 296 293 292 287 291 287 284 281 278 279 275 268 271 267 261 258 257 259 259 257 256 254
295 297 297 291 299 288 301 299 287 299 298 299 299 299 298 298 295 293 291 288 285 283 282 282 277 276 278 266 268 268 264 261 256 254 255 255 254 252
290 284 298 294 299 291 279 297 297 299 292 295 293 294 292 296 296 292 291 291 283 280 278 277 278 277 276 274 274 267 265 263 259 252 250 255 252 248
281 297 292 286 296 294 297 297 292 288 295 293 288 289 293 294 294 295 296 284 285 283 279 278 278 276 269 273 270 267 263 261 258 257 250 246 248 247
301 306 273 297 301 296 294 296 293 293 285 283 292 296 297 296 295 297 292 292 289 285 278 277 275 275 273 272 269 264 262 259 256 255 253 248 244 243
295 293 293 294 292 293 293 294 292 291 293 293 294 293 296 297 295 294 294 289 284 284 278 276 275 274 274 270 270 268 260 255 254 250 250 248 246 243
296 291 294 293 293 291 292 288 289 290 291 291 293 296 296 296 297 296 292 287 288 282 280 280 272 269 269 269 268 268 264 259 250 248 245 245 243 242
293 290 289 288 290 290 289 287 289 290 291 293 294 297 296 298 298 293 290 288 286 286 285 278 275 271 268 267 262 262 263 262 256 252 245 243 242 238
289 286 286 287 287 288 294 288 289 291 291 292 296 297 296 296 291 290 290 286 285 282 281 278 276 274 271 269 264 261 258 257 258 254 251 248 245 240
283 284 285 287 287 288 288 289 290 291 292 294 296 297 295 292 290 291 288 287 283 281 280 280 277 273 271 268 266 261 259 256 253 253 251 248 246 243
284 285 285 287 287 289 291 292 291 294 295 296 294 295 295 294 288 288 287 286 284 281 278 273 269 266 266 262 260 255 253 252 252 250 249 248 245 242
283 284 287 288 290 291 292 295 292 291 295 297 295 297 294 293 291 290 288 284 279 278 278 275 273 271 268 260 256 255 247 246 245 245 246 245 245 243
287 287 289 292 292 292 292 293 296 296 296 295 294 295 294 294 293 291 289 287 288 285 283 281 278 276 275 268 262 260 259 251 243 240 239 239 236 241
289 290 292 292 292 294 296 296 296 295 296 298 297 297 295 295 293 293 290 287 286 284 282 279 277 275 273 271 269 257 254 252 249 244 240 239 237 235
289 291 291 293 294 294 296 294 298 300 299 300 299 298 297 296 292 290 289 288 287 285 283 280 277 275 272 271 268 262 250 247 245 243 242 243 237 234
290 291 290 292 296 294 296 298 299 299 298 299 300 298 296 292 292 292 290 288 287 287 285 282 280 276 271 269 267 263 247 244 239 240 238 238 238 235